Temp
-17 -17 -17 -16 -16 -16 -16 -16 -15 -16 -15 -16 -16 -15 -15 -15 -16 -15 -16 -16 -16 -16 -16 -16 -16 -16 -15 -15 -15 -15 -15 -15 -15 -16 -16 -16 -16 -18 -19 -21 -23 -24 -22 -22 -20 -20 -19 -19 -19 -19 -18 -18 -18 -18
-17 -17 -17 -17 -16 -16 -16 -16 -16 -16 -16 -16 -16 -16 -16 -16 -16 -16 -16 -16 -16 -16 -16 -16 -16 -16 -15 -15 -15 -15 -15 -15 -16 -16 -16 -16 -18 -19 -21 -23 -24 -24 -22 -22 -21 -20 -19 -19 -19 -19 -18 -18 -18 -18
-17 -17 -17 -17 -16 -16 -16 -16 -16 -16 -16 -16 -16 -16 -16 -16 -16 -16 -16 -16 -16 -16 -16 -16 -16 -16 -16 -15 -15 -15 -15 -15 -16 -16 -16 -17 -19 -20 -21 -22 -23 -23 -22 -22 -20 -19 -19 -19 -19 -19 -18 -18 -18 -18
-18 -17 -17 -17 -17 -16 -17 -16 -16 -16 -16 -16 -16 -16 -16 -16 -16 -16 -16 -16 -16 -16 -16 -16 -16 -16 -16 -16 -16 -15 -16 -16 -16 -16 -17 -18 -19 -20 -21 -21 -22 -22 -21 -21 -20 -19 -19 -19 -19 -19 -18 -18 -18 -18
-18 -17 -18 -17 -17 -17 -17 -17 -17 -17 -17 -17 -17 -17 -17 -17 -17 -17 -17 -17 -17 -17 -17 -16 -16 -16 -16 -16 -16 -16 -16 -16 -16 -17 -17 -18 -19 -20 -21 -21 -21 -21 -20 -20 -20 -20 -20 -19 -19 -19 -18 -18 -18 -18
-18 -19 -18 -18 -17 -17 -17 -17 -17 -17 -17 -17 -17 -17 -17 -17 -17 -17 -17 -17 -17 -17 -17 -16 -16 -16 -16 -16 -16 -16 -16 -16 -17 -17 -17 -19 -19 -20 -20 -20 -20 -20 -20 -20 -20 -19 -19 -19 -19 -19 -18 -18 -18 -18
-18 -19 -19 -19 -18 -18 -18 -17 -17 -17 -17 -17 -17 -17 -17 -17 -17 -17 -17 -17 -17 -17 -17 -17 -17 -16 -16 -16 -16 -16 -16 -16 -17 -18 -17 -18 -19 -19 -19 -20 -20 -20 -19 -19 -19 -19 -20 -20 -20 -19 -18 -18 -18 -18
-19 -19 -19 -19 -18 -18 -18 -18 -18 -18 -18 -17 -17 -18 -17 -17 -17 -17 -17 -17 -17 -17 -17 -17 -17 -17 -17 -16 -16 -16 -16 -17 -17 -17 -18 -18 -19 -19 -19 -20 -20 -20 -19 -19 -19 -19 -19 -20 -19 -18 -18 -18 -18 -18
-19 -19 -19 -19 -19 -18 -18 -18 -18 -18 -18 -18 -18 -18 -18 -18 -18 -18 -18 -18 -17 -17 -17 -17 -17 -17 -17 -17 -16 -17 -17 -17 -17 -18 -18 -18 -19 -19 -19 -19 -20 -20 -19 -19 -19 -19 -19 -20 -19 -19 -18 -18 -18 -18
-19 -19 -19 -19 -19 -19 -18 -18 -18 -18 -18 -18 -18 -18 -18 -18 -18 -18 -18 -18 -18 -18 -17 -17 -17 -17 -17 -17 -17 -17 -17 -17 -17 -18 -18 -18 -19 -20 -19 -19 -19 -20 -20 -20 -20 -19 -19 -19 -19 -19 -18 -18 -18 -18
-19 -19 -19 -19 -19 -19 -19 -19 -19 -19 -18 -18 -18 -18 -18 -18 -18 -18 -18 -18 -18 -18 -18 -18 -17 -17 -17 -17 -17 -17 -17 -17 -18 -18 -18 -18 -19 -20 -21 -20 -19 -19 -19 -19 -20 -20 -19 -19 -19 -18 -18 -18 -18 -18
-20 -20 -19 -19 -19 -19 -19 -19 -19 -19 -19 -19 -19 -19 -19 -19 -18 -18 -18 -18 -18 -18 -18 -18 -18 -18 -18 -18 -17 -17 -17 -17 -18 -18 -19 -19 -19 -19 -21 -21 -20 -20 -19 -19 -19 -20 -19 -19 -19 -19 -18 -19 -18 -18
-20 -20 -20 -20 -19 -19 -19 -19 -19 -19 -19 -19 -19 -19 -19 -19 -18 -18 -18 -18 -18 -18 -18 -18 -18 -18 -18 -18 -18 -18 -18 -18 -18 -18 -19 -19 -19 -19 -20 -20 -20 -20 -19 -19 -19 -19 -19 -19 -19 -19 -19 -19 -19 -18
-21 -21 -20 -20 -20 -20 -20 -20 -20 -20 -19 -19 -19 -19 -19 -19 -19 -19 -19 -19 -19 -19 -19 -18 -18 -18 -18 -18 -18 -18 -18 -18 -18 -18 -19 -19 -19 -19 -19 -20 -20 -20 -20 -19 -19 -19 -19 -19 -19 -20 -19 -19 -19 -19
-22 -21 -21 -21 -21 -20 -20 -20 -20 -20 -20 -20 -20 -19 -19 -19 -19 -19 -19 -19 -19 -19 -19 -19 -19 -18 -18 -18 -18 -18 -18 -18 -18 -19 -19 -19 -19 -20 -20 -19 -20 -20 -20 -20 -20 -19 -19 -19 -20 -20 -20 -20 -19 -19
-22 -22 -21 -21 -21 -21 -21 -20 -20 -20 -20 -20 -20 -20 -20 -20 -20 -20 -20 -20 -19 -19 -19 -19 -19 -19 -19 -19 -19 -19 -19 -19 -19 -19 -19 -19 -20 -20 -20 -20 -20 -20 -20 -20 -20 -20 -20 -20 -20 -20 -20 -20 -20 -19
-22 -22 -22 -22 -21 -21 -21 -21 -21 -21 -21 -21 -21 -20 -20 -20 -20 -20 -20 -20 -20 -20 -19 -19 -19 -19 -19 -19 -19 -19 -19 -19 -20 -20 -20 -20 -20 -21 -21 -21 -21 -21 -21 -21 -21 -20 -20 -20 -20 -20 -20 -20 -20 -20
-23 -22 -22 -22 -22 -21 -21 -21 -20 -20 -21 -21 -20 -20 -20 -21 -20 -20 -20 -20 -20 -20 -20 -20 -20 -20 -20 -19 -19 -20 -20 -20 -20 -20 -20 -20 -21 -21 -22 -22 -22 -21 -21 -21 -21 -21 -21 -20 -20 -20 -21 -20 -20 -20
-23 -23 -22 -22 -22 -22 -21 -21 -21 -21 -21 -21 -21 -20 -21 -20 -20 -20 -20 -20 -20 -20 -20 -20 -20 -20 -20 -20 -20 -20 -20 -20 -21 -21 -21 -21 -22 -22 -22 -22 -22 -22 -22 -22 -22 -22 -22 -21 -21 -21 -20 -21 -20 -20
-22 -22 -22 -23 -22 -22 -22 -22 -22 -21 -21 -21 -21 -21 -21 -21 -21 -21 -21 -21 -21 -21 -21 -20 -20 -20 -20 -20 -20 -21 -21 -21 -21 -22 -22 -23 -23 -23 -23 -23 -23 -23 -23 -23 -23 -22 -22 -23 -23 -22 -21 -21 -21 -21
-23 -23 -23 -22 -22 -22 -22 -22 -22 -22 -21 -21 -21 -21 -21 -21 -22 -22 -22 -22 -21 -21 -21 -21 -21 -21 -21 -21 -21 -22 -22 -22 -23 -23 -23 -24 -24 -24 -24 -24 -23 -24 -24 -24 -24 -24 -24 -23 -23 -23 -23 -22 -22 -21
-23 -23 -23 -22 -22 -22 -22 -22 -21 -22 -22 -22 -22 -22 -22 -22 -23 -23 -22 -22 -22 -22 -22 -22 -22 -22 -22 -22 -22 -22 -23 -24 -24 -24 -24 -24 -25 -25 -25 -24 -24 -24 -24 -24 -24 -24 -24 -24 -24 -24 -23 -23 -23 -22
-23 -23 -22 -22 -22 -22 -22 -22 -22 -22 -22 -22 -23 -23 -23 -23 -23 -23 -23 -23 -23 -23 -22 -22 -22 -22 -23 -23 -24 -25 -25 -25 -25 -25 -25 -25 -25 -25 -25 -25 -25 -25 -25 -25 -25 -25 -24 -24 -24 -24 -23 -23 -23 -24
-23 -23 -23 -22 -22 -22 -22 -22 -22 -22 -23 -22 -23 -23 -23 -23 -23 -23 -24 -24 -24 -24 -24 -24 -24 -25 -25 -26 -26 -25 -25 -25 -25 -25 -25 -25 -25 -25 -25 -25 -25 -25 -25 -25 -25 -25 -25 -25 -24 -24 -23 -23 -23 -23
-23 -23 -23 -22 -22 -22 -22 -22 -22 -22 -23 -23 -23 -23 -23 -23 -24 -24 -24 -24 -24 -24 -24 -25 -25 -26 -26 -26 -26 -26 -26 -26 -26 -26 -26 -26 -25 -25 -25 -25 -25 -25 -25 -25 -25 -25 -25 -25 -25 -24 -24 -23 -23 -23
-23 -22 -22 -22 -23 -23 -23 -23 -22 -23 -23 -23 -23 -23 -23 -23 -24 -24 -24 -24 -25 -25 -25 -25 -26 -26 -26 -26 -26 -27 -26 -26 -26 -26 -26 -26 -26 -26 -25 -26 -26 -25 -25 -25 -25 -25 -25 -26 -26 -26 -26 -26 -26 -26
-22 -22 -22 -23 -22 -23 -23 -23 -23 -23 -23 -23 -23 -23 -23 -23 -24 -24 -24 -24 -24 -25 -25 -26 -26 -26 -26 -26 -27 -26 -26 -26 -26 -26 -26 -26 -26 -26 -26 -26 -26 -26 -26 -26 -26 -26 -26 -26 -26 -26 -26 -27 -26 -26
-22 -22 -23 -23 -23 -23 -23 -23 -23 -23 -23 -23 -23 -23 -23 -23 -24 -25 -25 -25 -25 -25 -25 -25 -26 -26 -26 -27 -26 -26 -26 -26 -26 -26 -26 -26 -26 -26 -26 -26 -26 -26 -26 -26 -26 -26 -26 -26 -27 -27 -27 -27 -27 -27
-23 -23 -23 -23 -23 -23 -23 -23 -23 -23 -24 -24 -24 -24 -24 -24 -24 -24 -25 -25 -25 -25 -25 -25 -25 -26 -27 -27 -26 -26 -26 -26 -26 -26 -26 -26 -26 -26 -26 -26 -26 -26 -26 -26 -26 -26 -26 -27 -27 -27 -27 -27 -27 -27
-23 -23 -23 -24 -23 -23 -23 -24 -24 -24 -24 -24 -24 -24 -24 -24 -24 -24 -25 -25 -25 -25 -25 -25 -25 -25 -26 -26 -27 -27 -27 -26 -26 -26 -26 -26 -26 -26 -26 -27 -26 -26 -26 -26 -26 -26 -26 -26 -27 -27 -27 -27 -28 -28
-24 -24 -24 -24 -24 -24 -24 -24 -24 -24 -24 -24 -24 -24 -24 -24 -24 -24 -25 -25 -25 -25 -25 -25 -25 -25 -26 -26 -26 -26 -27 -27 -27 -27 -27 -27 -27 -27 -27 -27 -27 -27 -26 -26 -26 -26 -27 -26 -26 -27 -27 -27 -27 -27
-24 -24 -24 -25 -25 -24 -24 -24 -24 -24 -24 -24 -24 -24 -24 -24 -24 -24 -25 -25 -25 -25 -25 -25 -25 -25 -25 -26 -26 -26 -26 -27 -27 -27 -27 -27 -27 -27 -27 -27 -27 -27 -27 -26 -26 -26 -26 -26 -27 -27 -27 -27 -27 -27
-24 -24 -25 -25 -25 -25 -25 -25 -24 -24 -24 -24 -24 -24 -24 -24 -24 -24 -24 -25 -25 -25 -25 -25 -25 -25 -26 -26 -26 -26 -26 -26 -27 -27 -27 -27 -27 -27 -27 -27 -27 -27 -26 -26 -26 -26 -26 -26 -26 -26 -27 -27 -27 -27
Height
5578 5592 5606 5619 5631 5643 5655 5666 5675 5685 5692 5699 5708 5715 5720 5725 5731 5735 5738 5741 5744 5745 5747 5748 5749 5749 5749 5748 5747 5745 5743 5737 5731 5723 5714 5703 5688 5674 5661 5650 5647 5652 5664 5674 5685 5693 5700 5704 5707 5711 5715 5717 5720 5722
5577 5591 5604 5617 5629 5641 5653 5663 5673 5682 5690 5699 5706 5713 5718 5724 5729 5734 5737 5739 5742 5745 5745 5747 5748 5748 5748 5747 5746 5743 5740 5735 5728 5720 5710 5696 5681 5670 5658 5652 5651 5658 5667 5677 5687 5696 5702 5706 5709 5712 5715 5719 5722 5724
5575 5589 5603 5616 5628 5640 5651 5662 5671 5680 5689 5697 5704 5711 5717 5722 5727 5732 5735 5738 5741 5742 5745 5746 5747 5747 5747 5746 5745 5742 5738 5734 5727 5718 5707 5693 5682 5672 5666 5663 5663 5669 5676 5684 5692 5699 5705 5708 5711 5714 5717 5721 5724 5727
5574 5589 5602 5615 5627 5639 5650 5660 5669 5679 5687 5695 5703 5709 5715 5720 5725 5730 5733 5737 5740 5742 5743 5745 5746 5746 5746 5745 5743 5740 5737 5732 5726 5717 5707 5694 5686 5680 5676 5676 5678 5682 5687 5692 5698 5704 5709 5711 5714 5716 5719 5723 5726 5729
5574 5588 5601 5614 5626 5638 5649 5659 5669 5677 5686 5694 5701 5708 5713 5718 5723 5727 5731 5735 5738 5742 5742 5743 5745 5745 5745 5744 5742 5739 5736 5732 5725 5718 5709 5699 5693 5689 5689 5690 5691 5694 5698 5702 5706 5709 5712 5714 5716 5719 5721 5725 5728 5731
5572 5586 5600 5613 5625 5637 5647 5658 5666 5675 5684 5692 5698 5704 5710 5716 5721 5726 5730 5734 5737 5739 5741 5743 5744 5744 5744 5743 5741 5739 5736 5732 5726 5720 5713 5707 5702 5701 5702 5703 5703 5705 5706 5708 5711 5713 5715 5716 5718 5721 5724 5727 5730 5733
5572 5585 5598 5611 5624 5635 5646 5656 5665 5674 5682 5690 5696 5702 5708 5714 5719 5724 5729 5732 5735 5736 5739 5741 5742 5743 5743 5743 5741 5739 5736 5732 5728 5724 5718 5713 5711 5710 5710 5712 5712 5713 5713 5714 5716 5717 5719 5720 5722 5724 5727 5730 5732 5735
5572 5585 5597 5610 5622 5633 5643 5654 5664 5672 5680 5687 5694 5700 5705 5711 5717 5722 5726 5729 5732 5735 5737 5739 5741 5742 5742 5742 5740 5738 5736 5733 5729 5727 5723 5719 5717 5716 5717 5717 5717 5717 5718 5719 5720 5722 5723 5724 5726 5727 5729 5732 5734 5737
5572 5585 5596 5609 5621 5632 5642 5652 5662 5671 5678 5685 5692 5698 5704 5709 5715 5719 5723 5727 5730 5734 5735 5737 5739 5741 5741 5740 5739 5738 5736 5733 5730 5728 5725 5723 5720 5719 5720 5721 5721 5721 5722 5722 5723 5724 5725 5726 5728 5730 5732 5734 5736 5739
5572 5584 5596 5608 5620 5631 5642 5651 5660 5668 5676 5682 5689 5695 5701 5706 5712 5717 5721 5724 5728 5731 5733 5735 5737 5739 5740 5739 5738 5738 5735 5733 5730 5730 5727 5725 5723 5721 5720 5722 5724 5725 5725 5726 5727 5727 5727 5729 5730 5732 5734 5736 5738 5740
5572 5584 5596 5608 5620 5630 5640 5649 5657 5666 5673 5679 5686 5693 5699 5704 5709 5713 5718 5722 5725 5728 5731 5733 5735 5736 5737 5738 5737 5737 5735 5733 5731 5730 5728 5726 5725 5723 5722 5722 5723 5726 5727 5727 5728 5729 5729 5731 5732 5733 5735 5737 5739 5742
5572 5584 5596 5608 5619 5629 5638 5647 5655 5664 5671 5678 5684 5689 5695 5699 5705 5710 5714 5719 5723 5726 5728 5730 5732 5733 5735 5735 5735 5735 5734 5733 5732 5730 5728 5727 5726 5724 5724 5724 5724 5725 5727 5728 5729 5729 5730 5732 5732 5733 5735 5737 5739 5742
5572 5584 5596 5607 5618 5627 5636 5645 5652 5660 5667 5673 5680 5685 5691 5696 5701 5706 5711 5716 5719 5721 5724 5727 5729 5730 5731 5733 5733 5733 5733 5732 5731 5730 5728 5727 5726 5725 5724 5725 5724 5724 5726 5728 5729 5730 5730 5731 5732 5733 5735 5736 5738 5740
5572 5584 5595 5606 5617 5626 5635 5643 5651 5658 5665 5671 5677 5683 5688 5692 5698 5705 5708 5712 5715 5718 5720 5723 5725 5727 5728 5729 5730 5730 5730 5730 5729 5728 5726 5725 5725 5725 5724 5725 5725 5725 5725 5726 5727 5729 5729 5730 5730 5731 5733 5734 5736 5738
5572 5583 5594 5605 5614 5624 5632 5641 5648 5656 5663 5669 5675 5679 5684 5691 5696 5700 5703 5707 5711 5713 5716 5719 5722 5724 5724 5725 5726 5726 5726 5725 5726 5725 5724 5724 5722 5722 5722 5722 5722 5722 5723 5724 5724 5725 5727 5727 5728 5729 5730 5731 5732 5734
5572 5582 5593 5603 5613 5622 5630 5638 5645 5653 5659 5665 5671 5676 5682 5688 5692 5695 5699 5702 5706 5709 5712 5715 5717 5718 5719 5721 5722 5721 5721 5720 5722 5721 5721 5720 5720 5718 5718 5718 5717 5717 5718 5719 5720 5721 5722 5724 5725 5725 5726 5727 5728 5729
5572 5583 5592 5601 5610 5618 5627 5636 5644 5650 5656 5661 5667 5673 5678 5682 5686 5690 5694 5698 5701 5705 5707 5709 5711 5712 5715 5716 5716 5716 5715 5715 5716 5716 5716 5716 5716 5715 5715 5714 5714 5713 5712 5712 5713 5715 5717 5718 5719 5721 5721 5722 5722 5724
5572 5580 5589 5598 5607 5615 5624 5633 5639 5646 5652 5657 5662 5668 5673 5676 5680 5685 5688 5692 5696 5698 5701 5703 5705 5707 5709 5709 5709 5710 5709 5709 5709 5710 5710 5710 5709 5710 5710 5710 5710 5709 5708 5707 5706 5707 5709 5711 5712 5713 5715 5716 5717 5718
5568 5577 5586 5595 5603 5613 5622 5629 5636 5642 5648 5653 5657 5663 5667 5671 5675 5679 5683 5686 5689 5692 5695 5697 5699 5701 5701 5702 5702 5702 5702 5703 5703 5703 5704 5703 5703 5704 5705 5705 5705 5704 5704 5703 5702 5702 5702 5703 5704 5705 5707 5709 5711 5711
5567 5575 5584 5592 5601 5609 5617 5624 5631 5637 5642 5648 5653 5658 5662 5666 5669 5673 5676 5679 5682 5685 5688 5691 5692 5693 5693 5694 5694 5694 5695 5695 5695 5696 5696 5697 5698 5698 5699 5699 5699 5700 5699 5698 5698 5697 5696 5696 5696 5697 5698 5699 5701 5703
5567 5575 5583 5591 5599 5608 5615 5621 5627 5633 5638 5644 5648 5653 5658 5661 5664 5668 5671 5674 5677 5680 5682 5683 5683 5684 5684 5685 5686 5686 5687 5687 5687 5688 5689 5691 5692 5693 5694 5694 5695 5696 5696 5695 5695 5694 5693 5692 5691 5690 5689 5689 5689 5691
5567 5574 5583 5589 5596 5603 5610 5616 5623 5630 5637 5642 5646 5651 5654 5657 5661 5664 5666 5669 5671 5673 5675 5676 5676 5676 5676 5677 5677 5677 5678 5679 5680 5681 5683 5685 5687 5688 5690 5691 5692 5692 5692 5691 5690 5689 5689 5687 5685 5683 5683 5682 5681 5680
5566 5574 5581 5588 5595 5601 5608 5615 5621 5627 5632 5638 5644 5648 5652 5656 5659 5661 5662 5664 5665 5665 5666 5667 5668 5668 5667 5667 5668 5670 5671 5673 5675 5677 5679 5681 5683 5685 5687 5688 5689 5688 5688 5687 5686 5684 5682 5681 5679 5677 5676 5675 5674 5673
5565 5573 5579 5586 5593 5601 5607 5613 5619 5626 5631 5637 5642 5647 5650 5654 5657 5658 5659 5660 5660 5659 5658 5658 5658 5659 5659 5660 5662 5665 5667 5669 5671 5673 5676 5678 5680 5682 5683 5685 5685 5684 5683 5682 5680 5678 5676 5673 5670 5667 5666 5666 5665 5665
5565 5571 5579 5585 5592 5599 5605 5612 5617 5624 5630 5636 5641 5645 5649 5653 5655 5656 5657 5657 5656 5654 5654 5654 5653 5653 5654 5656 5658 5660 5663 5666 5669 5671 5673 5675 5676 5678 5679 5680 5680 5679 5678 5677 5674 5671 5667 5663 5661 5656 5653 5651 5651 5650
5560 5568 5576 5583 5590 5598 5604 5611 5617 5623 5629 5634 5639 5644 5648 5651 5653 5655 5656 5655 5652 5651 5651 5651 5650 5650 5651 5653 5656 5659 5662 5665 5668 5670 5671 5672 5674 5675 5675 5675 5674 5673 5671 5669 5666 5662 5657 5653 5647 5643 5640 5636 5633 5633
5559 5567 5575 5582 5588 5597 5604 5610 5617 5622 5627 5633 5638 5641 5645 5649 5651 5653 5654 5654 5651 5649 5648 5648 5647 5648 5650 5652 5655 5658 5661 5663 5666 5667 5669 5669 5670 5671 5671 5670 5668 5667 5665 5663 5660 5656 5651 5645 5637 5631 5627 5624 5621 5620
5557 5564 5572 5580 5588 5595 5602 5608 5614 5619 5625 5630 5635 5638 5643 5647 5649 5651 5653 5653 5651 5649 5647 5646 5646 5647 5648 5650 5653 5656 5658 5660 5662 5663 5664 5664 5664 5665 5664 5663 5662 5660 5659 5657 5654 5650 5645 5639 5632 5624 5619 5616 5613 5612
5556 5563 5569 5576 5584 5592 5599 5606 5612 5617 5623 5628 5632 5636 5639 5642 5645 5648 5650 5652 5652 5650 5647 5646 5645 5645 5647 5649 5651 5652 5654 5656 5657 5658 5658 5658 5657 5657 5657 5655 5654 5654 5652 5649 5646 5643 5638 5634 5628 5620 5614 5611 5608 5606
5553 5561 5566 5573 5581 5587 5595 5601 5606 5610 5616 5621 5626 5630 5634 5638 5641 5644 5646 5648 5649 5649 5646 5645 5645 5645 5643 5644 5646 5647 5649 5650 5651 5652 5652 5652 5651 5650 5649 5648 5647 5646 5644 5642 5639 5635 5631 5627 5623 5617 5612 5606 5603 5601
5549 5556 5563 5570 5576 5584 5590 5594 5598 5604 5610 5615 5620 5625 5629 5633 5636 5638 5642 5644 5645 5646 5645 5643 5642 5641 5640 5640 5640 5640 5641 5642 5642 5643 5643 5643 5643 5643 5642 5640 5638 5637 5635 5633 5630 5626 5622 5618 5614 5611 5606 5602 5598 5594
5544 5551 5559 5567 5573 5578 5581 5586 5591 5598 5602 5607 5613 5619 5622 5626 5629 5632 5635 5637 5640 5641 5639 5640 5639 5637 5635 5635 5635 5633 5633 5633 5633 5634 5633 5633 5633 5633 5632 5631 5629 5627 5625 5623 5619 5616 5612 5608 5604 5601 5597 5593 5589 5586
5537 5544 5552 5558 5563 5569 5574 5579 5584 5590 5595 5600 5606 5611 5613 5616 5620 5624 5626 5630 5633 5633 5632 5633 5633 5633 5631 5630 5629 5628 5626 5625 5624 5624 5623 5623 5623 5622 5622 5620 5619 5617 5615 5612 5608 5605 5601 5597 5594 5590 5585 5581 5578 5575
Wind_Speed
62 61 59 57 56 53 50 48 44 42 38 36 34 31 27 22 20 16 14 11 7 6 5 4 5 9 8 8 12 17 22 26 31 38 44 52 54 44 40 26 3 15 25 24 32 25 19 18 19 23 20 19 19 18
62 60 59 57 55 53 51 47 44 40 38 37 34 31 27 23 20 16 14 10 8 6 5 4 5 7 7 10 14 18 22 26 33 40 48 54 42 40 28 15 15 22 27 27 29 24 24 20 19 25 19 20 18 18
62 60 58 57 55 53 50 47 44 40 38 36 34 32 27 24 20 17 15 11 8 6 5 4 5 6 8 10 13 17 21 27 34 41 51 45 38 29 21 18 21 28 28 26 26 28 22 18 17 25 20 19 18 18
62 61 57 56 54 52 49 44 40 40 38 36 34 31 27 24 20 18 15 12 8 7 6 4 5 5 7 10 13 17 21 28 34 43 50 39 32 24 20 24 30 26 25 26 26 22 17 15 17 21 19 18 17 16
63 61 58 55 54 52 49 44 42 40 38 37 34 30 26 23 21 19 16 12 9 7 5 4 5 5 6 9 13 17 22 28 34 43 46 35 27 24 24 27 24 23 20 17 17 16 16 11 11 13 17 18 17 15
63 62 60 56 54 51 48 46 43 40 39 37 34 31 27 24 22 19 16 13 9 7 7 5 5 5 6 9 12 16 21 27 33 41 41 31 24 24 20 17 21 21 17 17 17 17 13 10 15 20 17 18 16 14
62 61 61 57 55 52 48 44 41 40 38 36 33 29 27 24 21 20 18 14 10 9 8 7 6 6 7 9 12 15 20 25 31 37 37 26 19 18 17 15 17 14 12 14 15 13 13 13 15 12 17 18 16 14
61 61 59 56 55 53 49 45 43 40 39 36 33 29 27 25 22 21 19 15 12 10 10 8 8 7 6 8 11 14 19 23 28 33 36 24 16 11 9 12 12 12 11 10 8 7 9 13 16 11 16 18 16 15
60 60 59 56 52 52 51 47 42 42 39 35 32 29 27 25 24 22 20 16 13 12 10 9 9 7 6 7 9 13 17 21 25 29 30 26 17 6 6 5 5 9 9 8 6 4 5 11 13 10 15 16 15 15
58 58 58 58 55 51 48 44 43 42 38 34 32 30 28 26 25 24 21 17 14 12 11 11 10 8 6 6 8 12 16 18 23 25 28 28 20 7 2 4 6 6 8 6 6 5 6 10 9 7 14 15 13 14
57 57 56 55 55 53 50 47 44 41 37 34 32 29 28 26 26 25 22 18 15 13 12 11 10 9 7 6 8 11 16 16 21 22 25 26 20 14 6 1 4 10 8 4 3 2 5 10 9 9 14 16 14 13
56 56 55 55 54 52 49 46 43 39 36 33 32 31 30 29 28 27 24 20 16 15 14 12 10 10 9 8 8 9 14 17 19 21 21 22 19 12 3 3 1 6 10 7 5 2 1 13 10 16 12 15 16 15
55 55 54 54 53 51 48 45 42 40 37 35 34 33 30 30 28 27 22 18 18 19 17 14 11 9 7 8 9 11 13 15 18 19 20 19 18 13 2 1 2 2 7 13 9 7 3 2 13 16 15 15 18 18
54 55 54 53 52 50 47 44 42 39 36 35 32 30 30 29 28 23 21 21 22 21 19 16 13 10 7 6 9 12 14 16 18 20 18 17 16 12 7 9 7 6 6 9 12 13 11 7 6 11 20 17 18 20
55 54 53 52 51 49 46 44 41 37 34 32 30 30 30 26 24 24 22 23 25 23 21 17 15 13 11 11 12 14 17 19 18 20 20 18 16 9 7 7 14 16 12 12 14 16 16 15 13 12 14 17 16 20
56 53 52 52 50 48 46 43 40 36 35 32 32 29 28 26 25 23 23 25 27 25 22 21 20 18 17 15 16 18 20 21 20 21 21 19 17 13 10 7 9 13 19 19 17 19 20 20 19 17 16 20 22 20
53 50 51 51 50 49 46 42 39 39 36 36 34 31 30 30 28 27 26 25 26 26 24 23 22 22 20 20 20 23 25 23 22 23 24 22 17 14 11 12 12 13 14 17 21 21 23 23 24 24 22 19 20 24
53 53 50 49 49 48 45 44 38 39 36 35 33 31 32 31 32 28 27 29 26 27 27 26 25 24 23 24 25 27 26 26 26 27 27 23 17 15 13 14 14 15 14 14 17 20 25 25 26 26 27 26 24 22
53 52 51 51 49 47 47 42 41 37 35 31 31 30 30 31 30 29 29 30 30 29 29 28 26 25 26 27 28 29 29 29 27 27 24 19 18 17 15 14 16 18 17 15 16 16 18 24 27 29 30 30 29 28
50 51 50 48 49 46 46 46 43 37 34 33 31 29 29 28 29 28 28 27 27 26 26 25 27 28 29 30 32 31 28 27 26 23 19 18 17 17 16 17 19 16 14 13 13 13 13 15 21 25 28 32 33 32
42 42 42 42 39 39 40 41 42 35 31 30 29 27 25 24 22 22 21 22 22 24 24 26 27 30 32 32 30 28 27 25 22 21 20 17 15 16 17 16 15 12 8 9 9 11 13 14 14 17 21 26 28 33
39 35 33 33 32 32 32 31 30 30 28 25 23 21 19 16 14 13 13 14 17 19 22 23 25 26 28 29 29 29 26 22 20 19 16 15 15 17 13 10 8 6 3 4 7 10 13 15 17 18 19 20 25 27
35 35 35 33 32 32 32 31 30 28 27 24 21 16 17 11 8 5 3 4 10 14 18 22 25 27 29 29 26 20 19 19 15 13 16 17 17 15 12 11 8 3 4 9 10 16 23 33 28 22 21 24 23 25
37 34 34 34 34 33 33 32 30 28 25 20 24 26 18 13 10 9 5 6 6 10 17 22 23 20 18 16 12 14 12 13 16 18 18 15 12 14 12 7 4 7 9 13 19 23 29 38 31 28 29 27 28 30
39 37 34 35 36 34 31 30 27 30 30 26 26 22 16 10 9 11 11 11 12 6 9 12 12 9 10 12 11 14 17 18 15 17 15 11 10 7 3 6 9 11 14 18 23 30 36 40 41 29 30 35 36 35
39 40 43 37 33 31 32 37 36 34 30 27 24 24 17 12 10 11 10 14 11 5 3 4 5 6 6 6 12 17 16 15 15 11 6 6 9 6 6 11 14 14 18 24 29 37 41 45 42 35 32 34 35 33
47 44 40 36 34 35 40 41 39 35 31 27 23 20 14 10 8 6 9 11 13 6 4 3 2 3 4 9 16 15 13 12 12 11 8 9 10 11 12 13 15 16 22 25 30 36 40 48 45 38 34 30 29 30
50 46 41 39 42 47 47 43 41 35 30 27 22 17 11 11 8 4 3 7 13 15 13 9 6 1 5 9 16 16 14 15 13 11 11 10 12 16 18 20 20 23 28 30 34 37 39 42 48 41 35 29 28 28
49 48 45 47 53 51 49 46 39 32 31 26 21 20 20 17 12 15 14 8 9 10 10 14 9 5 0 6 12 17 20 21 21 21 21 23 24 24 23 24 23 25 28 32 33 34 35 41 44 43 36 30 28 29
52 50 51 53 56 53 51 48 44 39 36 34 31 30 28 23 20 23 21 17 10 7 9 9 9 9 6 4 10 16 20 25 27 28 30 27 24 27 28 27 26 28 30 30 33 34 36 37 41 41 40 33 30 31
55 53 54 56 55 56 56 51 45 41 39 37 35 33 30 27 23 21 20 20 17 14 12 10 10 13 13 14 15 16 19 25 29 30 29 28 27 29 28 27 28 28 28 31 37 39 39 40 41 43 42 40 33 31
58 54 53 55 55 55 52 49 46 46 45 43 41 36 36 36 32 28 28 25 22 21 21 17 16 15 16 19 21 23 23 23 22 25 27 26 28 30 30 31 32 31 35 40 42 44 42 42 44 43 43 42 42 37
59 58 56 53 51 51 50 50 51 50 49 47 45 42 39 40 39 38 37 32 29 28 27 25 21 20 21 22 25 28 26 23 24 24 26 28 30 31 34 35 35 35 39 42 45 48 47 47 47 46 47 47 46 44
Wind_Direction
183 182 181 181 182 180 181 183 185 188 187 188 189 192 189 188 196 206 204 200 193 223 248 283 315 338 340 328 323 332 333 331 329 327 329 335 339 340 336 336 335 165 179 178 178 171 162 146 136 149 144 140 136 127
181 180 181 182 180 179 181 184 186 188 189 191 190 193 189 191 197 205 203 195 211 226 249 271 314 334 335 325 332 334 335 333 332 332 338 348 348 352 2 34 113 138 149 153 158 157 150 140 135 151 150 145 143 135
180 180 181 181 180 180 182 185 186 188 191 191 192 195 192 193 198 202 202 199 207 230 248 266 312 325 321 325 332 337 337 337 335 340 354 356 1 10 36 80 108 128 138 150 148 146 137 130 137 158 150 150 148 142
179 179 180 181 180 181 183 184 185 190 191 193 195 196 195 197 202 204 201 203 210 225 239 263 312 308 315 330 336 340 340 340 341 350 4 5 11 33 62 95 111 117 132 141 144 150 149 126 132 154 156 155 155 150
179 179 181 183 181 182 182 186 191 191 193 194 194 197 195 198 202 202 201 202 213 225 232 256 282 296 322 332 341 342 341 343 348 0 12 14 30 57 92 104 102 109 123 131 138 150 160 146 159 164 163 160 160 156
178 180 181 182 182 183 183 188 190 191 194 194 194 195 195 198 200 200 200 202 207 221 234 249 267 298 324 341 343 340 341 345 355 9 18 22 48 71 93 100 100 100 106 114 128 135 147 149 162 164 164 164 163 159
178 181 181 182 183 184 185 187 191 192 193 196 196 196 196 199 199 199 200 200 208 219 231 246 253 277 322 339 341 339 342 346 359 14 26 28 52 75 99 108 104 93 94 114 126 130 141 144 151 163 164 167 165 163
178 180 182 182 183 183 187 187 192 193 195 198 199 198 198 200 201 202 201 200 210 219 227 238 248 269 311 333 336 335 343 349 358 10 25 38 50 82 101 124 117 97 94 108 119 137 173 170 164 159 170 170 169 169
179 180 181 183 185 185 186 188 193 196 196 198 200 200 202 200 201 203 203 204 212 221 230 237 248 261 295 325 330 335 343 349 355 10 23 35 40 70 132 152 122 113 102 109 128 142 165 179 166 178 177 176 176 178
179 181 182 183 187 189 188 191 196 197 196 197 200 202 202 202 203 204 205 207 212 221 229 235 239 248 277 314 325 333 343 347 356 5 12 25 34 50 134 187 200 162 139 120 115 124 175 173 179 189 185 185 187 188
180 181 183 185 186 188 190 192 194 196 197 198 202 203 202 202 203 205 207 209 213 218 224 231 235 240 257 292 320 334 341 343 348 0 12 17 26 29 38 124 165 206 197 192 172 117 183 189 190 183 191 194 198 199
180 182 184 187 188 190 190 192 194 196 197 200 202 203 202 202 204 207 208 211 212 217 221 227 237 247 256 271 305 327 339 341 342 349 1 10 18 23 48 31 165 188 219 235 230 219 142 202 191 193 196 202 208 207
180 182 185 188 189 190 191 193 194 197 199 201 203 204 205 205 206 209 210 210 214 217 223 225 231 246 255 268 289 307 325 336 338 343 351 3 11 9 352 174 348 247 215 241 244 248 258 253 215 208 204 212 217 216
180 184 186 188 190 191 193 194 197 199 202 204 206 206 208 208 209 209 211 213 216 218 224 226 227 238 257 277 298 303 306 316 327 335 338 346 358 7 345 241 256 277 265 235 243 246 249 257 256 225 209 211 224 226
181 184 187 188 190 192 194 197 198 200 203 205 207 208 211 211 208 214 221 217 217 221 224 228 231 242 256 272 291 305 305 300 308 321 328 332 339 338 337 309 259 254 258 255 250 250 246 252 252 226 223 210 229 233
181 183 187 190 192 194 195 198 199 200 202 203 207 211 212 215 217 222 220 217 220 224 230 237 244 250 258 269 285 291 298 295 301 308 314 319 322 314 302 291 287 279 259 250 252 247 248 250 252 241 234 232 230 232
181 186 190 192 193 196 197 197 202 199 210 209 212 213 216 218 221 220 219 218 221 229 236 241 249 256 262 271 278 285 292 292 291 297 303 308 311 302 288 277 277 282 286 270 252 250 247 249 249 252 236 230 230 230
186 188 190 194 197 198 196 199 209 206 215 214 211 221 223 224 221 227 229 227 234 238 239 247 255 259 265 270 274 285 287 286 288 293 298 304 298 281 267 260 272 271 276 281 274 263 253 248 247 247 247 242 236 234
188 190 194 195 198 201 199 206 202 212 219 215 216 221 223 225 230 231 235 235 237 241 248 254 256 263 266 269 278 282 284 283 285 289 293 289 278 271 263 257 263 264 272 284 282 288 268 260 255 249 248 246 245 242
194 195 196 197 200 201 200 206 211 219 220 219 219 222 223 224 227 229 230 232 237 241 246 254 260 262 265 273 279 278 276 278 282 281 272 263 262 259 258 256 260 271 274 280 289 296 306 277 259 255 256 252 251 246
195 200 201 203 203 205 208 213 213 214 209 211 211 210 210 212 218 227 234 239 244 248 250 255 261 267 274 276 274 274 273 271 267 258 251 248 245 250 251 254 260 270 278 281 293 305 306 306 296 282 264 252 249 249
177 182 187 190 191 192 191 192 193 194 193 193 194 201 205 208 211 220 239 253 259 262 265 269 271 272 273 273 271 269 265 260 247 240 236 229 222 222 222 233 250 263 285 340 342 337 327 307 297 289 285 281 267 250
184 186 188 188 187 185 186 186 187 189 190 184 181 173 161 142 133 123 145 238 255 254 255 258 262 264 265 267 266 261 250 241 237 220 211 201 202 210 207 197 174 124 327 317 327 343 345 340 323 295 282 281 276 281
184 188 192 192 193 196 194 188 183 179 174 175 170 158 138 127 94 67 76 28 327 256 255 256 259 269 276 270 252 236 226 212 196 183 189 194 193 203 209 223 280 294 329 334 332 335 337 333 325 302 291 279 277 274
190 191 198 195 185 185 181 175 171 166 169 172 176 170 157 133 102 71 41 18 16 324 277 277 279 267 244 232 221 202 196 188 186 185 180 179 183 185 224 295 285 282 307 314 318 327 330 331 326 298 279 277 273 264
190 182 178 187 184 181 179 173 168 168 166 170 173 178 180 161 120 59 33 16 5 352 295 271 264 232 232 214 195 192 192 192 185 181 188 201 211 232 284 325 324 308 313 323 330 331 335 336 324 314 302 293 287 284
180 182 189 188 183 179 176 172 172 170 169 166 170 176 173 164 140 106 34 39 27 33 58 50 42 215 207 194 194 194 201 204 209 221 233 229 238 271 289 308 313 319 325 323 326 329 332 337 335 324 317 309 299 290
181 187 190 185 181 179 175 175 174 177 182 183 191 190 207 217 183 199 354 25 34 45 51 51 40 26 216 216 212 218 225 226 233 245 261 281 289 290 292 303 304 309 309 310 321 320 332 333 339 331 325 313 300 294
197 194 188 182 181 182 179 179 180 185 185 188 194 210 223 230 215 255 271 299 356 5 36 42 42 64 187 246 247 250 246 245 252 264 269 278 284 290 299 302 300 301 301 316 320 327 330 331 337 340 327 315 302 295
197 194 189 186 185 185 185 186 189 190 195 201 209 221 230 238 244 259 271 270 285 318 339 3 13 28 14 246 241 249 254 261 266 267 269 274 282 290 295 297 292 302 303 301 312 320 322 326 330 335 341 321 303 297
197 195 195 193 192 194 195 195 195 198 204 210 218 222 230 237 241 244 257 261 267 283 292 309 326 330 328 323 314 303 275 261 259 262 269 276 284 289 291 292 294 298 301 304 310 319 321 322 322 326 327 334 322 301
199 197 199 201 203 202 202 205 208 209 209 213 217 225 235 239 242 247 256 263 259 269 276 289 299 313 319 320 321 321 309 293 276 271 272 274 276 283 285 286 288 294 299 305 309 314 313 314 317 317 321 322 328 322
201 200 202 205 207 208 209 213 216 218 220 223 228 231 237 240 242 249 254 258 260 263 267 273 277 289 301 304 310 314 311 299 289 280 275 274 274 281 287 289 289 289 300 304 300 305 307 306 309 312 315 314 315 319